Wind_Speed
42 43 44 44 45 45 46 46 46 46 47 47 48 48 49 49 50 51 52 52 52 51 50 50 51 53 54 55 55 54 54 54 54 53 53 54 54 54 54 54 53 54
46 46 46 47 47 48 48 49 48 48 49 49 49 50 51 51 52 53 54 55 54 53 52 52 53 54 56 56 56 55 53 52 53 53 53 53 53 53 53 54 54 55
49 49 49 50 50 50 51 51 51 50 50 50 51 53 53 54 54 55 56 56 56 56 55 55 56 56 57 57 56 55 53 51 51 52 53 53 53 53 53 53 54 55
51 52 52 53 53 53 53 53 52 52 51 52 53 55 55 56 56 57 58 58 58 58 58 58 58 58 58 57 56 55 53 50 50 50 51 52 52 53 53 54 55 55
55 56 56 56 56 56 56 55 54 54 53 54 55 56 57 57 58 59 60 61 60 60 60 60 59 58 57 57 57 56 54 51 50 50 50 51 51 52 53 55 55 56
58 59 59 59 59 58 58 57 57 56 55 55 55 56 57 57 59 61 63 63 63 63 62 60 57 56 56 56 56 56 54 53 52 52 52 52 52 54 55 56 56 57
61 61 61 61 61 60 60 59 59 58 56 55 55 55 56 58 60 63 65 66 67 66 64 59 55 53 54 55 55 55 54 54 53 53 53 54 55 56 56 56 56 57
63 63 62 62 62 62 61 60 60 58 57 55 54 55 57 60 62 64 66 68 68 66 63 58 53 52 53 54 54 54 54 54 54 54 54 55 56 56 57 57 56 56
64 63 63 63 63 63 62 61 59 58 57 55 55 56 58 61 64 66 67 67 66 64 61 57 52 51 52 53 54 54 54 55 56 56 56 57 57 57 56 56 55 54
64 64 63 62 62 62 62 61 60 59 58 56 57 58 60 63 65 65 64 63 62 61 59 55 52 51 52 53 54 54 54 55 56 56 57 57 56 56 55 54 53 52
62 62 61 60 60 60 61 62 62 61 60 59 60 61 61 61 61 60 59 59 59 59 57 54 52 52 52 53 53 54 54 54 55 56 56 56 55 54 53 53 52 51
61 61 61 61 61 62 63 64 64 63 63 63 62 59 57 56 56 57 57 57 57 57 55 54 53 53 53 53 53 53 53 53 53 54 54 53 52 52 52 51 51 51
62 63 63 63 64 64 65 65 65 64 63 61 58 55 53 54 55 56 55 55 54 54 53 52 52 53 53 53 53 53 52 52 51 51 51 50 50 50 49 49 49 49
63 63 64 64 64 64 64 63 62 61 60 58 56 55 53 53 53 52 51 50 50 50 50 50 51 52 53 53 53 53 52 51 51 50 49 49 49 49 49 49 49 50
60 61 61 61 61 60 60 59 59 59 58 58 57 55 52 50 49 48 47 47 47 47 48 49 51 52 54 54 54 53 53 51 50 49 49 49 49 49 50 50 51 51
57 57 57 57 57 57 58 58 58 59 59 58 56 53 50 48 47 45 45 45 46 47 48 49 51 52 54 54 54 53 52 50 49 49 49 49 50 51 51 52 53 54
56 56 56 57 58 58 59 59 59 59 58 56 54 51 49 48 47 46 45 46 47 48 49 51 52 53 53 53 52 52 51 50 49 49 50 50 51 52 53 54 55 56
56 57 57 58 59 60 60 60 60 58 55 53 52 51 50 49 48 48 48 48 49 50 51 52 53 54 54 53 52 52 52 51 51 51 52 52 53 54 55 56 57 58
57 57 57 58 59 60 60 60 59 57 54 53 52 52 52 51 50 50 50 51 52 52 53 55 56 56 56 56 55 55 54 54 55 55 55 55 56 57 58 59 60 61
58 57 57 58 59 59 60 59 58 56 54 54 53 53 54 54 53 53 54 54 55 55 55 56 58 59 59 58 58 58 58 58 58 58 58 59 60 61 62 62 63 63
58 57 57 58 59 59 60 59 58 57 56 55 55 55 55 56 56 57 58 58 58 59 58 58 59 60 61 61 61 61 61 61 62 62 62 63 64 64 65 65 65 65
60 59 59 60 61 61 61 62 62 61 61 60 60 60 60 61 63 64 65 65 65 64 63 62 61 61 62 63 64 64 64 65 65 66 66 67 67 67 67 67 66 66
64 64 64 64 65 65 66 67 67 67 68 68 68 68 69 70 71 72 72 72 71 70 68 67 65 65 65 65 66 67 68 69 69 70 70 71 70 69 69 68 68 67
71 71 71 71 71 71 71 72 73 74 75 76 76 76 76 77 77 76 75 75 74 73 72 71 69 68 68 68 69 70 70 71 72 72 73 73 72 72 72 72 70 69
79 79 79 79 78 77 77 77 77 78 79 81 81 82 82 81 80 79 78 76 75 75 74 73 72 72 72 72 72 72 72 72 73 74 74 74 74 73 72 70 68 68
83 84 84 84 84 84 83 83 82 83 83 84 85 86 85 85 84 82 80 79 78 76 75 75 74 74 74 74 73 74 74 74 74 74 74 73 71 69 68 68 69 70
Wind_Direction
285 287 289 290 290 290 291 293 293 293 293 293 295 297 297 298 298 298 298 299 300 300 298 297 296 296 295 294 292 289 287 286 285 285 284 285 285 285 285 286 285 286
287 288 289 289 288 288 289 291 292 292 292 292 294 296 296 297 297 297 297 299 300 299 299 298 297 297 296 294 292 290 289 287 286 286 285 285 285 285 285 286 286 287
287 288 288 288 288 288 289 290 291 292 292 292 294 295 296 296 296 295 296 298 298 299 299 299 298 297 296 295 293 291 290 288 286 286 285 285 285 285 285 285 285 285
287 287 288 288 288 288 289 290 291 291 292 293 294 295 296 296 295 295 296 297 297 298 298 299 298 297 295 294 292 291 290 288 287 286 285 285 285 285 285 285 285 285
286 286 287 287 288 288 289 289 290 291 291 293 294 295 295 295 295 295 295 295 296 296 297 297 297 295 293 292 291 290 288 288 287 286 286 285 285 285 285 285 285 286
285 286 286 287 287 288 288 289 289 290 291 292 293 293 293 293 293 294 294 294 295 295 296 296 295 293 292 291 290 289 287 287 286 286 286 286 285 285 285 285 286 286
284 284 285 285 286 286 287 288 289 289 291 291 292 291 291 291 291 291 292 293 294 295 295 295 294 291 290 290 289 288 287 286 285 285 285 285 285 285 286 286 286 286
282 282 283 284 286 286 287 288 289 291 291 291 291 290 289 289 289 290 291 292 293 294 295 295 293 290 289 289 289 288 287 286 285 284 285 285 286 286 286 286 286 286
282 283 284 286 287 288 289 290 290 291 291 290 289 288 288 288 289 289 291 292 292 293 294 295 293 290 288 288 288 287 287 286 285 285 285 285 286 287 287 287 287 288
284 285 286 287 288 289 290 289 289 288 288 288 288 288 288 288 289 290 291 292 292 293 294 295 292 289 288 287 287 287 287 286 286 285 285 286 286 287 287 287 288 289
284 285 286 287 287 288 287 287 287 288 288 288 288 289 289 289 290 291 292 292 293 293 294 294 291 289 288 287 286 286 287 287 287 286 286 286 286 287 287 288 288 289
284 285 286 286 286 286 286 286 287 288 289 289 290 290 291 290 291 292 292 293 293 293 293 292 289 288 288 287 287 287 287 288 289 288 288 288 288 288 288 288 288 289
284 285 285 285 285 285 286 287 288 289 290 290 291 292 292 292 292 292 293 293 293 293 291 289 287 287 287 287 287 288 288 290 290 290 290 289 289 289 289 289 289 290
283 283 283 284 284 285 286 287 288 289 290 291 292 293 294 293 292 293 293 293 293 291 288 287 286 286 286 286 287 287 288 289 290 290 290 290 289 290 290 290 290 290
281 282 282 283 284 285 287 288 289 290 291 292 293 294 293 292 292 292 292 292 291 289 287 286 286 285 285 285 285 286 287 287 288 288 288 289 289 289 290 290 290 290
281 282 283 284 285 286 287 288 289 290 291 292 293 292 291 291 291 291 291 290 289 288 287 286 285 284 283 283 283 284 284 285 285 286 287 287 287 288 288 289 289 289
282 283 284 285 287 287 288 289 290 290 291 292 291 290 289 290 290 290 290 289 288 287 287 285 284 283 282 282 282 281 281 281 282 283 284 285 285 286 287 288 288 289
283 283 284 286 287 287 288 289 289 290 290 290 290 290 289 289 288 288 288 288 287 287 286 284 283 282 281 280 279 278 278 279 280 281 281 282 284 285 286 287 288 288
283 284 285 285 286 286 287 287 288 288 287 288 289 289 289 288 287 287 287 286 286 286 285 284 282 281 280 279 278 276 276 277 277 278 279 281 282 283 284 285 286 287
284 284 285 285 285 285 285 285 285 285 284 285 286 287 287 287 287 287 286 285 285 285 285 284 282 281 280 279 277 276 275 276 276 277 278 279 281 281 283 284 285 286
283 284 284 284 284 284 283 283 283 283 283 283 284 285 286 287 288 288 288 287 286 286 286 285 284 282 280 279 277 276 276 276 276 277 278 279 280 281 283 284 285 287
283 284 284 284 283 283 283 283 283 283 283 283 284 284 286 287 288 289 289 289 288 287 287 286 285 283 281 280 278 277 277 277 277 278 279 281 282 283 285 286 287 287
282 283 283 284 284 284 283 283 283 283 283 284 285 286 286 287 288 288 289 289 288 287 286 285 284 283 283 281 280 279 279 279 279 280 282 283 284 286 287 288 288 288
281 281 282 282 283 283 282 282 282 282 283 284 285 285 286 287 287 288 288 287 286 285 284 284 283 283 283 282 282 281 281 281 282 282 283 285 286 288 289 290 290 289
281 281 281 282 282 281 281 280 280 281 281 282 283 284 285 286 287 287 287 286 285 284 283 283 283 283 283 283 283 283 283 283 283 284 285 287 289 290 290 289 288 287
282 282 282 282 282 281 281 280 280 279 280 281 281 283 284 285 286 286 286 286 285 285 284 284 284 284 284 284 285 284 285 285 286 287 288 289 289 288 287 286 286 286
Height
5818 5818 5817 5816 5814 5813 5811 5810 5809 5807 5805 5803 5802 5800 5798 5796 5794 5792 5789 5787 5785 5782 5780 5778 5776 5773 5770 5768 5765 5763 5761 5760 5758 5757 5755 5753 5752 5750 5748 5746 5745 5743
5813 5812 5811 5810 5809 5807 5806 5805 5803 5802 5800 5798 5797 5795 5792 5790 5788 5785 5783 5781 5778 5776 5773 5771 5769 5767 5764 5761 5759 5757 5755 5754 5753 5751 5749 5747 5746 5744 5743 5741 5739 5737
5807 5807 5805 5804 5802 5801 5800 5799 5798 5796 5795 5793 5791 5788 5786 5784 5781 5779 5776 5774 5772 5769 5767 5765 5762 5759 5757 5754 5752 5750 5749 5747 5746 5745 5743 5742 5740 5738 5737 5736 5734 5732
5801 5800 5799 5797 5796 5795 5794 5793 5792 5790 5789 5787 5785 5782 5779 5777 5774 5772 5769 5768 5765 5763 5761 5758 5756 5753 5750 5748 5746 5744 5743 5741 5740 5738 5737 5736 5734 5732 5731 5729 5727 5726
5795 5793 5792 5791 5790 5789 5788 5787 5786 5785 5783 5782 5779 5776 5773 5770 5767 5764 5762 5760 5759 5757 5755 5752 5750 5747 5744 5741 5739 5738 5736 5735 5734 5732 5730 5729 5728 5726 5724 5722 5721 5719
5788 5787 5786 5784 5783 5782 5782 5780 5779 5779 5778 5776 5773 5770 5767 5764 5760 5757 5754 5752 5751 5749 5748 5746 5743 5740 5737 5735 5733 5731 5730 5729 5727 5725 5724 5723 5721 5719 5718 5716 5714 5712
5782 5781 5779 5778 5777 5776 5775 5774 5773 5772 5771 5770 5767 5764 5761 5758 5754 5751 5748 5745 5743 5741 5740 5738 5736 5733 5731 5728 5727 5725 5724 5722 5720 5718 5717 5716 5714 5712 5710 5709 5707 5706
5775 5774 5773 5772 5770 5770 5769 5768 5766 5765 5764 5763 5761 5758 5754 5751 5747 5744 5741 5738 5736 5733 5732 5730 5729 5726 5724 5722 5720 5719 5717 5715 5713 5712 5710 5709 5707 5705 5704 5702 5700 5699
5768 5767 5767 5766 5764 5762 5762 5761 5759 5758 5756 5755 5753 5751 5748 5744 5740 5737 5734 5731 5729 5726 5724 5723 5721 5719 5717 5715 5714 5712 5710 5709 5707 5705 5703 5702 5700 5698 5697 5695 5693 5692
5762 5761 5760 5759 5758 5756 5754 5752 5751 5750 5748 5747 5745 5743 5740 5736 5733 5730 5728 5725 5722 5719 5718 5716 5714 5713 5711 5709 5707 5706 5704 5702 5700 5699 5697 5695 5693 5692 5690 5688 5687 5686
5755 5754 5753 5752 5751 5749 5746 5744 5742 5742 5740 5739 5737 5735 5732 5729 5726 5724 5721 5718 5716 5713 5711 5710 5708 5706 5704 5702 5701 5699 5698 5696 5694 5692 5691 5689 5687 5685 5684 5682 5680 5679
5748 5747 5746 5745 5743 5741 5738 5736 5735 5734 5732 5730 5728 5726 5724 5721 5719 5717 5714 5712 5710 5707 5705 5703 5701 5699 5697 5696 5694 5693 5691 5689 5688 5686 5685 5683 5681 5679 5677 5676 5674 5672
5741 5739 5737 5736 5734 5732 5730 5728 5727 5725 5723 5721 5720 5718 5716 5714 5711 5709 5707 5705 5703 5701 5699 5697 5695 5693 5691 5689 5688 5686 5684 5683 5681 5680 5678 5676 5674 5673 5671 5669 5668 5666
5733 5731 5729 5727 5726 5724 5722 5720 5718 5716 5715 5713 5711 5710 5709 5706 5704 5702 5700 5698 5697 5695 5693 5691 5689 5687 5685 5683 5681 5679 5678 5676 5675 5673 5672 5670 5668 5666 5664 5663 5661 5659
5724 5722 5720 5719 5717 5716 5714 5712 5710 5708 5707 5705 5704 5703 5701 5699 5697 5695 5693 5691 5690 5688 5687 5685 5683 5681 5678 5676 5675 5673 5671 5670 5668 5667 5665 5663 5661 5659 5658 5656 5654 5652
5716 5714 5713 5711 5710 5708 5706 5705 5703 5701 5700 5698 5697 5695 5693 5692 5690 5688 5687 5685 5683 5682 5680 5679 5677 5674 5672 5670 5668 5667 5665 5663 5662 5660 5658 5656 5655 5653 5651 5649 5647 5645
5708 5706 5705 5704 5702 5700 5699 5697 5695 5694 5693 5691 5689 5688 5686 5684 5683 5681 5680 5678 5676 5675 5674 5672 5670 5668 5665 5664 5662 5660 5659 5657 5655 5653 5651 5650 5648 5646 5643 5641 5640 5638
5700 5699 5698 5697 5695 5693 5691 5689 5688 5686 5685 5683 5682 5680 5678 5677 5676 5674 5673 5671 5670 5668 5667 5665 5663 5661 5659 5657 5655 5654 5652 5650 5648 5646 5644 5642 5641 5639 5636 5634 5632 5630
5692 5692 5691 5689 5687 5686 5684 5682 5681 5679 5677 5675 5674 5672 5671 5670 5668 5667 5666 5664 5663 5662 5660 5658 5656 5654 5652 5650 5649 5647 5645 5643 5641 5639 5637 5635 5633 5631 5629 5627 5625 5623
5684 5684 5683 5682 5680 5678 5677 5676 5674 5672 5670 5668 5666 5665 5664 5663 5661 5660 5659 5657 5656 5654 5653 5652 5650 5647 5645 5643 5642 5640 5637 5635 5634 5632 5629 5627 5625 5623 5621 5619 5617 5615
5677 5676 5675 5673 5672 5670 5669 5668 5666 5664 5662 5660 5659 5658 5656 5655 5653 5652 5651 5649 5648 5647 5645 5644 5642 5639 5638 5636 5634 5632 5630 5628 5626 5624 5622 5619 5617 5615 5613 5611 5608 5606
5668 5668 5667 5665 5663 5662 5661 5659 5657 5656 5654 5652 5651 5650 5648 5647 5645 5644 5642 5641 5640 5638 5637 5636 5634 5631 5630 5628 5626 5624 5622 5620 5618 5615 5613 5611 5609 5606 5604 5602 5599 5597
5659 5658 5658 5656 5655 5653 5652 5650 5648 5647 5645 5643 5642 5641 5640 5638 5636 5635 5633 5632 5630 5629 5628 5626 5624 5622 5621 5620 5618 5615 5613 5611 5609 5606 5604 5602 5599 5597 5595 5593 5590 5588
5651 5649 5648 5647 5646 5644 5643 5641 5639 5638 5636 5634 5632 5631 5630 5628 5626 5625 5623 5622 5620 5619 5617 5616 5615 5613 5611 5610 5608 5606 5604 5602 5599 5597 5595 5592 5590 5588 5586 5583 5581 5578
5641 5639 5638 5637 5635 5634 5633 5631 5630 5628 5626 5624 5622 5621 5619 5617 5615 5614 5613 5611 5609 5608 5607 5606 5604 5603 5601 5600 5598 5596 5594 5592 5589 5587 5585 5583 5580 5578 5575 5573 5571 5569
5629 5628 5626 5625 5623 5622 5621 5619 5618 5617 5615 5613 5611 5609 5608 5606 5604 5603 5601 5600 5598 5597 5595 5594 5593 5592 5590 5589 5587 5585 5583 5581 5578 5577 5575 5572 5570 5568 5566 5564 5562 5560